Location: Iesi
(43.5167°N, 13.2333°E)
Time: 01:40:42
(UTC+00:00)

CENTAUR R/B - Pass Details

Date: 08 August 2020
Orbit: 756 x 1432 km, 63.4° (Epoch: 26 September)

Event Time Altitude Azimuth Distance (km) Brightness Sun altitude
Exits shadow 21:04:50 52° 167° (SSE) 1,150 2.5 -23.9°
Maximum altitude 21:06:03 62° 120° (ESE) 1,064 2.4 -24.0°
Drops below altitude 10° 21:12:47 10° 41° (NE) 2,935 5.2 -24.6°
Sets 21:15:42 0° 39° (NE) 4,004 6.0 -24.9°
